Flag Weather past 2 weeks in Faro, Portugal

Now
59 °F

Rain showers. Partly cloudy.


Feels Like: 57 °F
Forecast: N/A
Wind: 13 mph from Northwest

Location: Faro / Aeroporto

Current Time: Nov 23, 2014 at 8:27:27 PM

Latest Report: Nov 23, 2014 at 8:00 PM


Visibility: 5 mi

Pressure: 29.77 "Hg

Humidity: 100%

Dew point: 59 °F

Location of FaroLocation

Historic Weather in Faro — Graph

°F

Faro temperature yesterday

Maximum temperature yesterday: 72 °F (at 12:00 PM)
Minimum temperature yesterday: 63 °F (at 12:00 AM)
Average temperature yesterday: 66 °F

Past Weeks' High & Low Weather Summary

 TemperatureHumidityPressure
High72 °F (Nov 22, 12:00 PM)100% (Nov 8, 8:30 PM)30.07 "Hg (Nov 8, 8:30 PM)
Low50 °F (Nov 10, 2:00 AM)49% (Nov 9, 1:00 PM)29.65 "Hg (Nov 11, 3:48 AM)
Average62 °F84%29.89 "Hg
* Reported Nov 8 7:00 PM — Nov 23 7:00 PM, Faro, Weather by CustomWeather, © 2014

Note: Actual official high and low records may vary slightly from our data, if they occured in-between our weather recording intervals... More about our weather records

Advertising

Faro weather history for previous 24 hours

 ConditionsComfort  
Time TempWeatherWind HumidityBarometerVisibility
7:00 PM
Nov 23
63 °FRain showers. Partly cloudy.8 mph100%29.77 "Hg4 mi
6:30 PM63 °FPassing clouds.5 mph94%29.74 "HgN/A
6:00 PM63 °FPassing clouds.7 mph94%29.74 "HgN/A
5:30 PM63 °FSprinkles. Partly cloudy.8 mph94%29.74 "HgN/A
5:00 PM64 °FPartly sunny.10 mph88%29.77 "HgN/A
4:30 PM63 °FPartly sunny.10 mph94%29.77 "HgN/A
4:00 PM64 °FThunderstorms. Partly sunny.10 mph94%29.77 "Hg4 mi
3:30 PM64 °FRain showers. Partly sunny.13 mph94%29.77 "Hg3 mi
3:00 PM66 °FPartly sunny.8 mph94%29.77 "Hg6 mi
2:30 PM66 °FPartly sunny.7 mph94%29.77 "Hg5 mi
2:00 PM66 °FPassing clouds.8 mph94%29.77 "Hg6 mi
1:30 PM68 °FPassing clouds.7 mph88%29.77 "HgN/A
1:00 PM68 °FScattered clouds.6 mph88%29.80 "Hg6 mi
12:30 PM66 °FScattered clouds.8 mph94%29.80 "Hg6 mi
12:00 PM64 °FScattered clouds.8 mph94%29.83 "HgN/A
11:30 AM64 °FScattered clouds.8 mph88%29.83 "HgN/A
11:00 AM64 °FPassing clouds.5 mph88%29.80 "HgN/A
10:30 AM64 °FPassing clouds.3 mph88%29.80 "HgN/A
10:00 AM64 °FPassing clouds.5 mph83%29.80 "HgN/A
9:30 AM63 °FLight rain. Passing clouds.3 mph88%29.80 "HgN/A
9:00 AM61 °FPassing clouds.1 mph94%29.80 "HgN/A
8:30 AM61 °FSunny.2 mph88%29.80 "Hg10 mi
8:00 AM59 °FPassing clouds.5 mph94%29.77 "HgN/A
7:30 AM59 °FPassing clouds.3 mph94%29.77 "HgN/A
7:00 AM59 °FClear.2 mph94%29.77 "Hg10 mi
6:30 AM57 °FPassing clouds.3 mph94%29.77 "HgN/A
6:00 AM59 °FPassing clouds.3 mph88%29.74 "HgN/A
5:30 AM57 °FClear.2 mph100%29.74 "Hg10 mi
5:00 AM55 °FPassing clouds.No wind100%29.74 "HgN/A
4:30 AM57 °FPassing clouds.3 mph94%29.74 "HgN/A
4:00 AM59 °FPassing clouds.7 mph94%29.74 "HgN/A
3:30 AM55 °FPassing clouds.2 mph100%29.74 "HgN/A
3:00 AM57 °FPassing clouds.3 mph100%29.74 "HgN/A
2:30 AM57 °FPassing clouds.2 mph94%29.74 "HgN/A
2:00 AM57 °FPassing clouds.2 mph94%29.74 "HgN/A
1:30 AM57 °FPassing clouds.2 mph94%29.74 "HgN/A
1:00 AM59 °FPassing clouds.3 mph88%29.74 "HgN/A
12:30 AM61 °FPassing clouds.5 mph88%29.74 "HgN/A
12:00 AM61 °FPassing clouds.2 mph83%29.74 "HgN/A
11:00 PM
Nov 22
63 °FPassing clouds.10 mph83%29.71 "HgN/A
10:30 PM63 °FPassing clouds.6 mph77%29.71 "HgN/A
10:00 PM63 °FPassing clouds.5 mph77%29.71 "HgN/A
9:30 PM63 °FPassing clouds.6 mph77%29.71 "HgN/A
9:00 PM64 °FPassing clouds.5 mph73%29.71 "HgN/A
8:30 PM64 °FPassing clouds.5 mph78%29.71 "HgN/A
8:00 PM66 °FPassing clouds.6 mph73%29.68 "HgN/A
Weather by CustomWeather, © 2014

See weather overviewHow to use our weather pages